This is the latest recevied weather packets stored in our database for station/object KO6SRA-13. If no packets are shown the sender has not sent any weather packets the latest 10 day(s).
| Time | Temp. | Humidity | Pressure | Rain* | Wind** | Luminosity | Snow |
|---|---|---|---|---|---|---|---|
| 1787412059 | 14.44° C | 97% | 1019.6 hPa | 0 mm | - | 88 W/m² | - |
| 1787411757 | 14.44° C | 97% | 1019.6 hPa | 0 mm | - | 83 W/m² | - |
| 1787411452 | 14.44° C | 98% | 1019.9 hPa | 0 mm | - | 82 W/m² | - |
| 1787411147 | 13.89° C | 98% | 1019.8 hPa | 0 mm | - | 88 W/m² | - |
| 1787410843 | 14.44° C | 98% | 1019.8 hPa | 0 mm | - | 81 W/m² | - |
| 1787410539 | 14.44° C | 98% | 1019.9 hPa | 0 mm | - | 79 W/m² | - |
| 1787410239 | 13.89° C | 98% | 1020 hPa | 0 mm | - | 62 W/m² | - |
| 1787409935 | 13.89° C | 98% | 1019.7 hPa | 0 mm | - | 59 W/m² | - |
| 1787409631 | 13.89° C | 98% | 1019.9 hPa | 0 mm | - | 54 W/m² | - |
| 1787409326 | 13.89° C | 98% | 1019.8 hPa | 0 mm | - | 58 W/m² | - |
| 1787409023 | 13.89° C | 98% | 1019.8 hPa | 0 mm | - | 47 W/m² | - |
| 1787408718 | 13.89° C | 98% | 1019.9 hPa | 0 mm | - | 48 W/m² | - |
| 1787408413 | 13.33° C | 98% | 1019.7 hPa | 0 mm | - | 40 W/m² | - |
| 1787408109 | 13.33° C | 98% | 1019.7 hPa | 0 mm | - | 34 W/m² | - |
| 1787407804 | 13.33° C | 98% | 1019.5 hPa | 0 mm | - | 26 W/m² | - |
| 1787407499 | 13.33° C | 97% | 1019.6 hPa | 0 mm | - | 23 W/m² | - |
| 1787407199 | 13.33° C | 97% | 1019.5 hPa | 0 mm | - | 16 W/m² | - |
| 1787406895 | 13.33° C | 97% | 1019.5 hPa | 0 mm | - | 14 W/m² | - |
| 1787406590 | 13.33° C | 97% | 1019.3 hPa | 0 mm | - | 10 W/m² | - |
| 1787406287 | 13.33° C | 97% | 1019.5 hPa | 0 mm | - | 7 W/m² | - |
| 1787405982 | 13.33° C | 97% | 1019.4 hPa | 0 mm | - | 4 W/m² | - |
| 1787405679 | 13.33° C | 97% | 1019.1 hPa | 0 mm | - | 2 W/m² | - |
| 1787405374 | 13.89° C | 97% | 1019.3 hPa | 0 mm | - | 0 W/m² | - |
| 1787405069 | 13.33° C | 97% | 1019.2 hPa | 0 mm | - | 0 W/m² | - |
| 1787404765 | 13.33° C | 97% | 1019.2 hPa | 0 mm | - | 0 W/m² | - |
* Rain latest hour (hover to see other rain measurements)
** Current wind speed in m/s (hover to see current wind gust speed)